Flag for U.S.A. Weather past 2 weeks in Palm Springs, California, U.S.A.

Now
105 °F

Sunny.


Feels Like: 103 °F
Forecast: 82 / 103 °F
Wind: 17 mph from Northwest

Location: Palm Springs Regional Airport

Current Time: Jul 31, 2015 at 7:08:08 PM

Latest Report: Jul 31, 2015 at 5:53 PM


Visibility: 10 mi

Pressure: 29.80 "Hg

Humidity: 18%

Dew point: 54 °F

Location of Palm SpringsLocation

Historic Weather in Palm Springs — Graph

°F

Palm Springs temperature yesterday

Maximum temperature yesterday: 109 °F (at 2:53 PM)
Minimum temperature yesterday: 89 °F (at 6:53 AM)
Average temperature yesterday: 96 °F

Past Weeks' High & Low Weather Summary

 TemperatureHumidityPressure
High110 °F (Jul 25, 3:53 PM)85% (Jul 18, 6:53 PM)30.05 "Hg (Jul 18, 6:53 PM)
Low74 °F (Jul 19, 4:53 AM)7% (Jul 25, 2:53 PM)29.67 "Hg (Jul 17, 5:53 PM)
Average91 °F36%29.84 "Hg
* Reported Jul 16 5:53 PM — Jul 31 5:53 PM, Palm Springs, Weather by CustomWeather, © 2015

Note: Actual official high and low records may vary slightly from our data, if they occured in-between our weather recording intervals... More about our weather records

Advertising

Palm Springs weather history for previous 24 hours

 ConditionsComfort  
Time TempWeatherWind HumidityBarometerVisibility
5:53 PM
Fri, Jul 31
105 °FSunny.17 mph18%29.80 "Hg10 mi
4:53 PM105 °FBroken clouds.20 mph21%29.81 "Hg10 mi
3:53 PM106 °FScattered clouds.16 mph23%29.83 "Hg10 mi
2:53 PM108 °FScattered clouds.15 mph23%29.84 "Hg10 mi
1:53 PM105 °FSunny.No wind25%29.88 "Hg10 mi
12:53 PM104 °FScattered clouds.6 mph26%29.90 "Hg10 mi
11:53 AM103 °FSunny.No wind27%29.91 "Hg10 mi
10:53 AM100 °FScattered clouds.5 mph30%29.93 "Hg10 mi
9:53 AM96 °FSunny.3 mph36%29.93 "Hg10 mi
8:53 AM92 °FSunny.No wind43%29.93 "Hg10 mi
7:53 AM89 °FSunny.No wind46%29.94 "Hg10 mi
6:53 AM85 °FClear.No wind55%29.92 "Hg10 mi
5:53 AM86 °FClear.6 mph49%29.89 "Hg10 mi
4:53 AM85 °FClear.No wind55%29.89 "Hg10 mi
3:53 AM88 °FClear.3 mph46%29.89 "Hg10 mi
2:53 AM88 °FClear.5 mph48%29.89 "Hg10 mi
1:53 AM88 °FClear.No wind48%29.90 "Hg10 mi
12:53 AM91 °FClear.6 mph42%29.91 "Hg10 mi
11:53 PM
Thu, Jul 30
92 °FClear.6 mph40%29.92 "Hg10 mi
10:53 PM92 °FClear.6 mph41%29.94 "Hg10 mi
9:53 PM92 °FClear.3 mph40%29.94 "Hg10 mi
8:53 PM92 °FPassing clouds.12 mph40%29.93 "Hg10 mi
7:53 PM97 °FScattered clouds.14 mph35%29.87 "Hg10 mi
Weather by CustomWeather, © 2015

See weather overviewHow to use our weather pages